一网星座-0157星 (ONEWEB-0157 )

导读

ONEWEB-0157是英国主导的OneWeb低轨互联网星座中的卫星,于2021年3月25日发射入轨。OneWeb星座布局在1200公里近地轨道,主打全球低延迟互联网接入,卫星具备较高的轨道稳定性,可为全球提供覆盖广泛的宽带通信服务。该卫星和同批次卫星共同完善OneWeb的全球组网能力,推动低轨卫星互联网产业发展。

Basic Information
目录编号:
48055
目录名称:
ONEWEB-0157
国际标识:
2021-025P
轨道中心:
EARTH
卫星名称:
一网星座-0157星
卫星全名:
一网星座-0157星 (ONEWEB-0157 )
卫星状态:
在轨 (已飞行1907 天)
发射日期:
2021-03-25 UTC
国别 :
英国 (GB)
星等 :
--
Orbit Information
数据来源 国际轨道数据 AOE轨道数据
星历时间 2026-06-14T05:04:26+0800
14小时前
查看轨道信息
2026-06-08T17:00:00+0800
6天前
查看轨道信息
半长轴 7587.905km 7587.903km
偏心率 0.0002018 0.0001733
轨道倾角 87.896° 87.895°
近地点辐角 106.516° 111.730°
升交点赤经 320.882° 321.979°
平近点角 253.619° 161.987°
近地点 1208.236km 1208.451km
远地点 1211.3km 1211.081km
周期 109.633分钟 109.633分钟
每日圈数 13.134695 13.134699
Detailed Information
平衡模式:
三轴稳定
覆盖范围:
全球
运营商:
一网卫星公司
运营商所在国:
英国
制造商(研发单位):
一网卫星公司
制造商所在国:
英国
使用方式:
暂无
Satellite Introduction
OneWeb卫星网络由648颗重约125公斤的微型卫星组成,运行在1200公里的轨道上。 每颗卫星都能够提供至少每秒8千兆位的吞吐量,以使用其高吞吐量的Ku频段有效载荷为家庭和移动平台提供互联网接入。该卫星仍在工作。
2D Orbit Map
3D Orbit Map
Orbit Altitude Analysis Chart
Orbit Inclination Analysis Chart
Orbit Comprehensive Analysis Chart
View Comprehensive Chart